Location: Mas de Dumas
(44.4330°N, 4.5540°E)
Time: 02:57:23
(UTC+00:00)

Daily predictions for brighter satellites

Satellite Brightness Start Highest point End
(mag) Time Altitude Azimuth Time Altitude Azimuth Time Altitude Azimuth
Cosmos 2082 Rocket 4.4 00:44:24 10° NNW 00:46:22 21° N 00:46:22 21° N
SL-16 R/B 3.9 01:04:14 34° N 01:04:14 34° N 01:07:43 10° N
Lacrosse 5 4.2 01:23:24 19° N 01:23:24 19° N 01:26:06 10° NE
Cosmos 2278 Rocket 3.7 01:33:29 31° N 01:33:29 31° N 01:36:29 10° NNE
ADEOS II 3.8 01:32:52 10° NE 01:36:21 27° ENE 01:36:21 27° ENE
Lacrosse 5 rocket 4.2 01:46:59 16° NE 01:46:59 16° NE 01:48:36 10° ENE
Resurs 1-4 Rocket 3.6 01:41:23 10° N 01:44:06 31° N 01:44:06 31° N
ATLAS 3B R/B 4.4 01:48:15 19° ESE 01:49:25 20° ESE 01:53:59 10° ENE
Cosmos 1943 Rocket 3.7 02:03:09 26° ESE 02:03:30 26° ESE 02:08:02 10° NE
BREEZE-M DEB (TANK) 3.6 02:11:23 79° ESE 02:11:23 79° ESE 02:23:56 10° ENE
ATLAS 5 CENTAUR R/B 3.7 02:14:39 23° N 02:14:39 23° N 02:17:21 10° NNE
CZ-2D R/B 3.5 02:10:27 10° N 02:13:22 30° NNW 02:13:22 30° NNW
CENTAUR R/B 3.5 02:31:07 30° SE 02:32:47 36° ESE 02:38:48 10° NE
ATLAS 5 CENTAUR R/B 4.2 02:36:44 15° NE 02:36:44 15° NE 02:37:31 10° NE
Cosmos 2297 4.1 02:37:30 51° NNW 02:37:30 51° NNW 02:42:25 10° NNE
Atlas Centaur 2 4.0 02:39:28 24° SSE 02:39:28 24° SSE 02:44:36 10° ESE
BREEZE-M DEB (TANK) 3.1 02:39:30 59° ENE 02:39:30 59° ENE 02:46:18 10° ESE
Cosmos 2180 Rocket 4.4 02:35:00 10° N 02:41:24 83° W 02:42:24 65° S
IRIDIUM 106 4.3 02:42:04 82° E 02:42:04 82° E 02:47:18 10° N
ARIANE 5 R/B 2.7 02:38:22 10° N 02:42:47 61° NNW 02:42:47 61° NNW
BREEZE-M DEB (TANK) 4.3 02:39:39 43° SW 02:44:08 76° SSE 02:49:08 10° ENE
Cosmos 972 4.4 02:39:18 10° NNW 02:44:11 76° NE 02:44:11 76° NE
USA 238 DEB 3.5 02:43:42 67° WSW 02:44:40 80° NW 02:51:38 10° NE
USA 238 3.5 02:43:47 67° WSW 02:44:46 80° NW 02:51:45 10° NE
SL-16 R/B 4.5 02:49:20 14° NW 02:49:20 14° NW 02:50:26 10° NW
Cosmos 540 Rocket 3.6 02:46:12 65° NNW 02:46:12 65° NNW 02:50:50 10° NNE
Cosmos 1606 4.3 02:50:04 29° N 02:50:04 29° N 02:52:05 10° N
CZ-2D R/B 4.4 02:46:44 10° NNE 02:49:29 42° N 02:49:29 42° N
Cosmos 2279 Rocket 4.1 02:46:02 10° NNW 02:51:39 54° WNW 02:51:39 54° WNW
Cosmos 2369 Rocket 2.6 02:51:13 45° SSE 02:52:43 60° ESE 02:58:19 10° NNE
SL-4 R/B 3.4 02:57:25 28° NNE 02:57:25 28° NNE 03:00:25 10° ENE
Meteor 1-20 Rocket 4.0 02:55:15 10° NNW 03:00:44 79° W 03:02:08 52° S
SeaSat 1 3.6 02:56:22 10° NE 03:00:59 39° ESE 03:03:18 25° SSE
Cosmos 1092 Rocket 4.4 02:58:33 16° SSE 03:03:25 59° E 03:09:26 10° NNE
Unknown 4.5 03:04:10 40° SE 03:04:10 40° SE 03:07:59 10° ENE
Cosmos 1707 Rocket 4.1 03:04:05 39° SSE 03:05:26 57° E 03:09:46 10° NNE
Cosmos 1125 Rocket 3.5 03:00:20 10° NNW 03:05:41 81° ENE 03:11:00 10° SSE
Unknown 4.3 03:05:53 44° SE 03:05:53 44° SE 03:09:47 10° ENE
Lacrosse 5 3.9 03:02:47 10° NW 03:06:51 23° NNE 03:10:53 10° ENE
Unknown 4.4 03:06:59 43° SE 03:07:00 43° SE 03:10:56 10° ENE
IDEFIX/ARIANE 42P 3.6 03:03:13 10° NNE 03:08:16 44° E 03:13:04 11° S
Unknown 4.2 03:09:03 46° SE 03:09:07 46° SE 03:13:06 10° ENE
Unknown 4.2 03:10:33 46° SE 03:10:42 46° SE 03:14:41 10° ENE
Unknown 4.2 03:11:17 46° SSE 03:11:28 47° SE 03:15:27 10° ENE
Unknown 4.2 03:13:40 46° SSE 03:13:58 47° SE 03:17:57 10° ENE
Spot 2 4.4 03:09:49 10° NNE 03:14:30 68° ESE 03:16:11 37° S
Cosmos 2278 Rocket 4.3 03:15:20 12° NW 03:16:13 13° NW 03:18:38 10° NNW
Cosmos 1733 Rocket 4.4 03:12:53 10° N 03:17:07 41° ENE 03:21:19 10° SSE
ADEOS II 2.7 03:12:23 10° N 03:17:13 38° WNW 03:17:17 38° WNW
Cosmos 1782 2.6 03:17:22 80° NW 03:17:22 80° NW 03:21:15 10° N
Unknown 4.0 03:16:57 50° SSE 03:17:20 52° SE 03:21:23 10° ENE
NOSS 3-3 (A) 4.4 03:10:13 10° NW 03:17:44 68° WSW 03:25:57 10° SSE
NOSS 3-3 (C) 4.4 03:10:19 10° NW 03:17:51 68° WSW 03:26:04 10° SSE
Unknown 4.0 03:18:35 50° SSE 03:19:01 53° SE 03:23:04 10° ENE
PSLV R/B 4.2 03:15:18 10° NNE 03:19:36 53° E 03:22:23 21° S
COSMOS 2487 3.8 03:16:42 10° N 03:20:02 40° ENE 03:23:19 10° SE
Meteor 1-28 Rocket 4.1 03:21:34 37° NNW 03:21:34 37° NNW 03:24:01 10° NNW
Unknown 3.9 03:20:09 51° S 03:20:39 55° SE 03:24:42 10° ENE
Unknown 3.9 03:21:46 52° S 03:22:19 57° SE 03:26:24 10° ENE
Cosmos 1602 3.6 03:18:27 10° N 03:22:24 88° W 03:23:23 50° S
USA 215 3.9 03:16:20 10° ENE 03:22:37 47° SE 03:26:57 20° SSW
Cosmos 220 Rocket 4.1 03:23:08 40° S 03:24:34 72° ESE 03:28:51 10° NNE
Unknown 3.3 03:24:26 74° WNW 03:24:38 78° NNW 03:28:32 10° NE
Lacrosse 5 rocket 1.7 03:22:43 22° NW 03:25:18 65° NE 03:29:41 10° ESE
Resurs 1-4 Rocket 4.2 03:23:36 10° NNW 03:25:11 12° NW 03:25:11 12° NW
Unknown 3.8 03:25:00 52° S 03:25:40 61° SE 03:29:45 10° ENE
Nadezhda 4 Rocket 3.9 03:23:21 35° SW 03:25:54 62° W 03:32:00 10° N
Cosmos 2344 3.6 03:23:38 34° WSW 03:27:05 65° NW 03:35:23 10° NE
Unknown 3.8 03:26:38 52° S 03:27:21 63° SE 03:31:27 10° ENE
BREEZE-M DEB (TANK) 4.4 03:14:58 10° WNW 03:27:36 58° N 03:31:24 10° E
Unknown 3.8 03:28:12 51° SSW 03:29:00 65° SE 03:33:06 10° ENE
Cosmos 1400 Rocket 3.2 03:27:09 25° S 03:29:13 60° E 03:33:03 10° NNE
Unknown 3.8 03:29:40 50° SSW 03:30:32 65° SE 03:34:38 10° ENE
NOSS 3-2 (A) 3.8 03:28:31 36° W 03:30:35 50° NW 03:37:03 10° NNE
Unknown 3.5 03:31:30 56° WNW 03:31:56 61° NNW 03:35:44 10° NE
NOSS 3-2 (C) 3.4 03:29:58 37° WSW 03:32:24 69° NW 03:39:01 10° NE
Unknown 3.7 03:31:37 49° SSW 03:32:33 69° SE 03:36:41 10° ENE
Unknown 3.8 03:32:44 46° SSW 03:33:45 65° SE 03:37:52 10° ENE
Unknown 3.7 03:35:56 45° SSW 03:37:04 69° SE 03:41:12 10° ENE
Unknown 3.7 03:37:32 44° SSW 03:38:44 71° SE 03:42:52 10° ENE
Cosmos 1869 Rocket 4.2 03:34:40 10° NNW 03:38:27 36° W 03:38:27 36° W
ATLAS 3B R/B 2.5 03:35:33 28° SW 03:39:19 83° NW 03:45:58 10° NE
PSLV R/B 3.8 03:35:16 10° SSE 03:39:25 82° WSW 03:43:35 10° NNW
BREEZE-M DEB (TANK) 3.0 03:37:56 33° SW 03:40:09 78° SSE 03:42:57 10° ENE
Unknown 3.6 03:39:21 44° SW 03:40:35 80° SE 03:44:44 10° ENE
MSX 4.4 03:36:06 10° NNE 03:41:49 59° ESE 03:47:27 10° S
Unknown 3.6 03:40:44 41° SW 03:42:04 76° SE 03:46:13 10° ENE
Unknown 3.6 03:42:20 40° SW 03:43:43 78° SE 03:47:52 10° ENE
Cosmos 1943 Rocket 2.5 03:44:42 31° WSW 03:46:57 47° WNW 03:52:19 10° NNE
Unknown 3.6 03:45:31 38° SW 03:47:02 82° SE 03:51:11 10° ENE
Cosmos 44 3.5 03:43:39 21° SSW 03:47:03 70° ESE 03:51:52 10° NE
Unknown 3.6 03:47:05 37° SW 03:48:40 84° SE 03:52:50 10° ENE
Unknown 3.5 03:47:30 39° WSW 03:48:54 76° NNW 03:52:58 10° NE
Unknown 3.5 03:48:06 38° WSW 03:49:38 87° NNW 03:53:45 10° NE
Cosmos 1536 4.4 03:46:13 10° N 03:49:56 37° ENE 03:53:37 10° SE
Unknown 3.5 03:48:41 36° SW 03:50:19 86° SE 03:54:29 10° ENE
Unknown 3.5 03:50:19 35° SW 03:52:02 89° SE 03:56:12 10° ENE
Timation 2 Rocket 4.2 03:47:53 10° NNW 03:53:57 68° ENE 03:59:53 10° SE
Cosmos 2242 Rocket 4.4 03:49:34 10° S 03:54:00 54° E 03:58:25 10° NNE
Unknown 3.5 03:53:31 32° WSW 03:55:20 87° NW 03:59:31 10° NE
USA 267 4.1 03:51:01 10° E 03:57:16 49° NNE 04:03:31 10° NW
Iridium 4 Rocket 3.1 03:52:50 11° SSW 03:57:17 59° W 04:01:35 10° N
Unknown 3.6 03:55:28 31° WSW 03:57:19 76° NNW 04:01:29 10° NE
Cosmos 2263 4.3 03:54:15 22° SW 03:57:49 60° WNW 04:03:23 10° NNE
USA 102 4.0 03:53:15 10° NNE 03:58:23 53° NW 03:59:30 39° WSW
Unknown 3.6 03:57:00 30° WSW 03:58:56 76° NNW 04:03:06 10° NE
Unknown 3.6 03:57:18 30° WSW 03:59:17 80° NNW 04:03:27 10° NE
ATLAS 5 CENTAUR R/B 4.4 03:58:57 10° NNW 03:59:43 10° N 04:00:30 10° N
Cosmos 1346 Rocket 3.8 03:56:09 10° N 04:00:09 51° ENE 04:04:08 10° SSE
CZ-2C R/B 4.4 03:59:06 10° NNW 04:01:54 19° WNW 04:02:03 19° WNW
Unknown 3.6 03:59:55 28° WSW 04:02:01 79° NNW 04:06:10 10° NE
Cosmos 1461 3.2 03:58:23 10° NW 04:02:12 41° WSW 04:06:08 10° S
Meteor 1-5 Rocket 4.1 03:57:35 10° NNW 04:03:02 86° W 04:08:37 10° S
Unknown 3.6 04:03:06 26° WSW 04:05:20 75° NNW 04:09:29 10° NE
Cosmos 2026 Rocket 4.0 03:59:11 10° SSW 04:05:24 69° W 04:11:45 10° N
ADEOS 3.8 04:01:47 10° N 04:06:51 51° WNW 04:11:28 12° SW
Unknown 3.6 04:04:42 25° WSW 04:07:00 73° NNW 04:11:09 10° NE
Unknown 3.6 04:06:18 24° WSW 04:08:40 71° NNW 04:12:49 10° NE
Unknown 3.7 04:07:53 24° WSW 04:10:19 70° NNW 04:14:28 10° NE
Cosmos 1655 Rocket 4.4 04:05:02 10° S 04:11:12 70° E 04:17:26 10° NNE
Cosmos 1862 Rocket 3.6 04:08:28 10° SSW 04:12:53 65° W 04:17:22 10° N
Unknown 3.8 04:14:17 20° WSW 04:16:59 63° NNW 04:21:07 10° NE
CZ-4B R/B 4.0 04:14:09 10° NNE 04:17:51 67° ESE 04:21:28 10° S
Unknown 3.8 04:15:53 20° WSW 04:18:39 61° NNW 04:22:47 10° NE
Cosmos 1340 2.7 04:16:21 10° N 04:20:09 81° E 04:23:56 10° SSE
Unknown 3.8 04:17:29 19° WSW 04:20:20 60° NNW 04:24:27 10° NE
Unknown 3.8 04:19:04 18° WSW 04:21:59 59° NNW 04:26:05 10° NE
CENTAUR R/B 2.9 04:18:19 16° WSW 04:23:11 50° NW 04:30:07 10° NNE
Unknown 3.9 04:20:40 18° WSW 04:23:39 57° NNW 04:27:45 10° NE
Aureole 2 Rocket 2.1 04:21:14 10° SSW 04:23:57 66° ESE 04:26:36 10° NNE
Unknown 3.9 04:23:50 16° WSW 04:26:58 55° NNW 04:31:03 10° NE
Atlas Centaur 2 4.1 04:22:05 12° SW 04:27:14 26° S 04:33:42 10° SE
SJ-6F 4.4 04:23:36 10° N 04:27:46 67° WNW 04:31:55 10° SSW
S3M 4.0 04:21:53 10° N 04:28:04 90° WNW 04:34:19 10° S
Starlink (trailer) 4.0 04:25:27 16° WSW 04:28:38 54° NNW 04:32:42 10° NE
Unknown 4.0 04:27:04 15° WSW 04:30:20 52° NNW 04:34:24 10° NE
Unknown 4.0 04:28:40 15° W 04:32:00 51° NNW 04:36:03 10° NE
Meteor 1-27 Rocket 3.8 04:29:06 10° SSW 04:34:56 64° WNW 04:40:43 10° N
COSMO-SKYMED 1 3.5 04:30:56 10° SSE 04:35:09 53° ENE 04:39:23 10° N
H-2A R/B 3.2 04:32:28 10° N 04:35:47 28° WNW 04:39:04 10° SW
CZ-2C R/B 2.4 04:32:16 10° N 04:37:05 68° WNW 04:42:03 10° SSW
Cosmos 2369 Rocket 3.4 04:33:02 12° W 04:37:09 25° NW 04:41:47 10° N
SL-4 R/B 1.6 04:33:39 10° WNW 04:37:10 88° SW 04:40:52 10° ESE
SeaSat 1 3.3 04:34:02 10° N 04:38:25 33° NW 04:42:47 10° WSW
Unknown 4.2 04:35:03 12° W 04:38:40 47° NNW 04:42:42 10° NE
Okean 1-7 3.4 04:34:29 10° S 04:38:52 72° E 04:43:16 10° NNE
Unknown 4.2 04:36:40 12° W 04:40:21 46° NNW 04:44:23 10° NE
Unknown 4.2 04:37:22 12° W 04:41:05 45° NNW 04:45:06 10° NE
Cosmos 2297 Rocket 4.3 04:36:10 10° N 04:41:08 30° NE 04:46:04 10° ESE
PAYLOAD A 4.1 04:38:03 10° N 04:42:40 47° WNW 04:47:09 10° SW
Cosmos 1908 Rocket 3.5 04:38:42 10° NNW 04:42:59 61° W 04:47:15 10° S
Unknown 4.2 04:39:50 11° W 04:43:40 44° NNW 04:47:40 10° NE
Cosmos 2084 Rocket 3.5 04:39:45 10° NW 04:44:10 86° SW 04:48:30 10° SE
Cosmos 1315 Rocket 3.2 04:40:53 10° SSW 04:44:51 46° WNW 04:48:52 10° N
Unknown 4.3 04:41:33 10° W 04:45:26 42° NNW 04:49:25 10° NE
Okean O Rocket 3.2 04:41:41 10° NNE 04:45:54 40° E 04:50:06 10° S
Unknown 4.3 04:42:39 10° W 04:46:36 43° NNW 04:50:35 10° NE
Meteor 1-11 Rocket 4.1 04:41:48 10° NNW 04:47:03 41° W 04:52:12 10° SSW
IDEFIX/ARIANE 42P 3.6 04:43:16 10° N 04:47:37 27° WNW 04:51:57 10° WSW
Cosmos 1656 Rocket 4.2 04:43:20 10° SW 04:48:40 41° WNW 04:54:01 10° NNE
Unknown 4.4 04:44:49 10° W 04:48:45 41° NNW 04:52:43 10° NE
Unknown 4.4 04:46:24 10° W 04:50:21 41° NNW 04:54:18 10° NE
Lacrosse 5 2.4 04:45:38 10° NW 04:50:40 62° NE 04:55:41 10° ESE
Cosmos 1500 4.0 04:47:36 10° NNW 04:50:51 28° W 04:54:06 10° SSW
Unknown 4.4 04:47:10 10° W 04:51:07 41° NNW 04:55:04 10° NE
Unknown 4.4 04:49:41 10° W 04:53:37 41° NNW 04:57:33 10° NE
Cosmos 1733 Rocket 4.4 04:51:26 10° NW 04:54:36 19° W 04:57:45 10° SW
Cosmos 44 Rocket 3.7 04:50:03 10° SSW 04:55:04 72° ESE 05:00:01 10° NE
Helios 1A Rocket 3.4 04:51:54 10° NNE 04:55:58 68° ESE 05:00:01 10° S
